User: anonymous
Location: Drayton Valley
(53.2170°N, 114.9830°W)
Time: 02:58:25
(UTC-06:00)
Language:

MOZ.5/SAFIR/RUBIN 5/SL-8 - Orbit

View from above orbital plane
View from above orbital plane
View from above satellite
View from above satellite

Ground track
Ground track

The orbit data is extracted from the following two-line orbital elements,

1 28898U 05043G   14205.13065587  .00000080  00000-0  25994-4 0  8747
2 28898 097.8369 032.6638 0018655 279.3684 219.9461 14.59498195465317
Epoch (UTC): 24 July 2014 03:08:08
Eccentricity: 0.0018655
inclination: 97.8369°
perigee height: 681 km
apogee height: 708 km
right ascension of ascending node: 32.6638°
argument of perigee: 279.3684°
revolutions per day: 14.59498195
mean anomaly at epoch: 219.9461°
orbit number at epoch: 46531

The dashed part of the orbit path shows where the satellite is in the earth's shadow,  

DLR